Find Starlink 36036

NORAD ID: 66608 Int'l Des: 2025-270 Owner: SPXS Country: US Constellation: starlink operational
LEOCIRCULAR

Live Position

Loading 3D Globe...

About Starlink 36036

Description loading...

Upcoming Passes

Passes for default location (London). Set your location on the main map for personalized predictions.

Altitude History

Loading altitude history...

Two-Line Element Set

1 66608U 25270W 26104.62022213 .00009950 00000-0 37048-3 0 9991
2 66608 43.0051 213.0269 0001747 270.5863 89.4789 15.27590557 23044
Epoch: Apr 14, 2026 • Age: 10 hours

Current Status

Altitude 485.7 km
Velocity 7.63 km/s
Sub-Earth Point 35.95°N, 124.42°E
Launch Date Nov 22, 2025
Age 0.3 years
Type internet

Technical Details

Classification Payload
Mass 575.00 kg
Dry Mass 530.00 kg
Total Mass 575.00 kg
Length 0.30 m
Diameter 4.10 m
Span 29.00 m
Shape Box + pan
Manufacturer SPXS
Bus Type Starlink V2MO
Phase Status In Orbit
Owner/State SPXS/US

Most Searched